Date String (YYYY-MM-DD hh:mm:ss) UTC,Instrument flags,absolute air pressure of the measurement (hPa),sample flow rate (lpm),inlet stack bypass flow (lpm),air temperature of the measurement (°C),ambient temperature measured by the external sensor (°C),aerosol sample conditioner tube jacket temperature (°C),OPC LED temperature (°C),internal box temperature (°C),relative humidity of the measurement (%),span deviation,mass concentration of particles derived from Lorenz-Mie calculation of OPC scattering (μg/m³),mass concentration of particles derived from Lorenz-Mie calculation of OPC scattering (μg/m³),mass concentration of particles derived from Lorenz-Mie calculation of OPC scattering (μg/m³)
DateTimeUTC,F1_M11,P_M11,Q1_M11,Q2_M11,T1_M11,T2_M11,T3_M11,T4_M11,T5_M11,U1_M11,ZSPAN_M11,X2_M11,X0_M11,X1_M11
2024-02-17 17:00:00,SystemResetWarning,0835.1,4.99,000.00,018.3,018.0,000.0,026.7,020.1,10.8,0000.0,0005.29,0006.95,0005.17
2024-02-17 17:01:00,SystemResetWarning,0835.1,4.99,000.00,018.3,018.0,000.0,026.7,020.1,10.8,0000.0,0005.29,0006.92,0005.17
2024-02-17 17:02:00,SystemResetWarning,0835.1,5.00,000.00,018.3,018.0,000.0,026.7,020.1,10.7,0000.0,0005.30,0006.96,0005.18
2024-02-17 17:03:00,SystemResetWarning,0835.1,5.00,000.00,018.3,018.0,000.0,026.7,020.1,10.5,0000.0,0005.33,0007.01,0005.21
2024-02-17 17:04:00,SystemResetWarning,0835.1,5.00,000.00,018.3,018.0,000.0,026.7,020.1,10.7,0000.0,0005.34,0007.31,0005.22
2024-02-17 17:05:00,SystemResetWarning,0835.1,5.00,000.00,018.3,018.0,000.0,026.8,020.1,10.5,0000.0,0005.36,0007.89,0005.24
2024-02-17 17:06:00,SystemResetWarning,0835.1,5.01,000.00,018.3,018.0,000.0,026.8,020.1,10.0,0000.0,0005.38,0007.95,0005.25
2024-02-17 17:07:00,SystemResetWarning,0835.1,5.01,000.00,018.3,018.0,000.0,026.8,020.1,10.0,0000.0,0005.36,0008.08,0005.25
2024-02-17 17:08:00,SystemResetWarning,0835.2,5.00,000.00,018.3,018.0,000.0,026.8,020.1,09.9,0000.0,0005.36,0008.06,0005.25
2024-02-17 17:09:00,SystemResetWarning,0835.1,5.00,000.00,018.3,018.0,000.0,026.8,020.1,09.7,0000.0,0005.37,0008.08,0005.26
2024-02-17 17:10:00,SystemResetWarning,0835.1,5.00,000.00,018.3,018.0,000.0,026.7,020.1,09.8,0000.0,0005.44,0008.53,0005.29
2024-02-17 17:11:00,SystemResetWarning,0835.1,5.00,000.00,018.3,018.0,000.0,026.7,020.0,09.8,-000.2,0005.46,0008.53,0005.31
2024-02-17 17:12:00,SystemResetWarning,0835.1,5.00,000.00,018.3,017.9,000.0,026.7,020.0,10.0,-000.0,0005.50,0008.59,0005.33
2024-02-17 17:13:00,SystemResetWarning,0835.1,5.00,000.00,018.3,017.9,000.0,026.8,020.0,10.2,0000.0,0005.51,0008.61,0005.33
2024-02-17 17:14:00,SystemResetWarning,0835.1,5.01,000.00,018.3,017.9,000.0,026.8,020.0,10.1,0000.0,0005.50,0008.59,0005.32
2024-02-17 17:15:00,SystemResetWarning,0835.1,5.00,000.00,018.3,017.9,000.0,026.7,020.0,10.3,0000.0,0005.45,0008.53,0005.29
2024-02-17 17:16:00,SystemResetWarning,0835.1,5.00,000.00,018.3,017.9,000.0,026.7,020.0,10.2,0000.0,0005.43,0007.82,0005.25
2024-02-17 17:17:00,SystemResetWarning,0835.0,5.00,000.00,018.3,017.9,000.0,026.7,020.0,10.1,0000.0,0005.38,0007.74,0005.21
2024-02-17 17:18:00,SystemResetWarning,0835.0,5.00,000.00,018.3,017.9,000.0,026.7,020.0,10.3,0000.0,0005.37,0007.56,0005.19
2024-02-17 17:19:00,SystemResetWarning,0835.0,5.00,000.00,018.3,017.9,000.0,026.7,020.0,10.6,0000.0,0005.35,0007.56,0005.16
2024-02-17 17:20:00,SystemResetWarning,0835.0,5.00,000.00,018.3,017.9,000.0,026.7,020.0,10.8,0000.0,0005.33,0007.70,0005.14
2024-02-17 17:21:00,SystemResetWarning,0835.0,5.00,000.00,018.3,017.9,000.0,026.7,020.0,10.4,0000.0,0005.27,0007.31,0005.10
2024-02-17 17:22:00,SystemResetWarning,0835.0,4.99,000.00,018.3,017.9,000.0,026.7,020.0,10.4,0000.0,0005.24,0007.19,0005.07
2024-02-17 17:23:00,SystemResetWarning,0835.0,5.01,000.00,018.3,017.9,000.0,026.7,020.0,10.3,0000.0,0005.20,0007.11,0005.04
2024-02-17 17:24:00,SystemResetWarning,0835.0,5.00,000.00,018.3,017.9,000.0,026.8,020.0,10.2,0000.0,0005.17,0007.26,0005.01
2024-02-17 17:25:00,SystemResetWarning,0835.0,5.00,000.00,018.3,017.8,000.0,026.8,020.0,10.2,0000.0,0005.20,0007.53,0005.01
2024-02-17 17:26:00,SystemResetWarning,0835.0,5.00,000.00,018.3,017.8,000.0,026.8,020.0,10.3,0000.0,0005.24,0007.60,0005.03
2024-02-17 17:27:00,SystemResetWarning,0835.0,4.99,000.00,018.3,017.8,000.0,026.8,020.0,10.4,0000.0,0005.26,0007.61,0005.05
2024-02-17 17:28:00,SystemResetWarning,0835.0,4.99,000.00,018.3,017.8,000.0,026.8,020.0,10.4,0000.0,0005.31,0007.75,0005.09
2024-02-17 17:29:00,SystemResetWarning,0834.9,5.01,000.00,018.3,017.8,000.0,026.9,020.0,10.6,0000.0,0005.36,0007.96,0005.12
2024-02-17 17:30:00,SystemResetWarning,0834.9,5.01,000.00,018.3,017.8,000.0,026.8,020.0,10.5,0000.0,0005.40,0008.08,0005.15
2024-02-17 17:31:00,SystemResetWarning,0835.0,5.01,000.00,018.3,017.8,000.0,026.8,020.0,10.7,0000.0,0005.45,0008.12,0005.18
2024-02-17 17:32:00,SystemResetWarning,0835.0,4.99,000.00,018.3,017.8,000.0,026.8,020.0,11.1,0000.0,0005.52,0008.33,0005.20
2024-02-17 17:33:00,SystemResetWarning,0835.0,5.00,000.00,018.3,017.8,000.0,026.8,020.0,10.9,0000.0,0005.57,0008.74,0005.23
2024-02-17 17:34:00,SystemResetWarning,0835.0,5.00,000.00,018.3,017.8,000.0,026.8,020.0,10.7,0000.0,0005.64,0009.27,0005.25
2024-02-17 17:35:00,SystemResetWarning,0835.0,4.99,000.00,018.3,017.8,000.0,026.8,020.0,10.9,0000.0,0005.66,0009.98,0005.26
2024-02-17 17:36:00,SystemResetWarning,0835.0,5.00,000.00,018.3,017.8,000.0,026.8,020.0,10.7,0000.0,0005.67,0009.99,0005.27
2024-02-17 17:37:00,SystemResetWarning,0835.0,4.99,000.00,018.2,017.8,000.0,026.8,020.0,10.7,0000.0,0005.67,0009.99,0005.27
2024-02-17 17:38:00,SystemResetWarning,0835.0,5.01,000.00,018.3,017.8,000.0,026.8,020.0,10.8,0000.0,0005.69,0010.17,0005.28
2024-02-17 17:39:00,SystemResetWarning,0835.0,5.00,000.00,018.3,017.8,000.0,026.8,020.0,10.7,0000.0,0005.76,0010.46,0005.28
2024-02-17 17:40:00,SystemResetWarning,0834.9,5.00,000.00,018.3,017.8,000.0,026.9,020.0,10.7,0000.0,0005.81,0010.52,0005.29
2024-02-17 17:41:00,SystemResetWarning,0834.9,5.01,000.00,018.3,017.8,000.0,026.8,020.0,10.9,0000.0,0005.86,0010.79,0005.29
2024-02-17 17:42:00,SystemResetWarning,0834.9,5.00,000.00,018.3,017.8,000.0,026.8,020.0,11.0,0000.0,0005.87,0010.82,0005.29
2024-02-17 17:43:00,SystemResetWarning,0834.9,4.99,000.00,018.3,017.8,000.0,026.8,020.0,10.9,0000.0,0005.88,0011.44,0005.31
2024-02-17 17:44:00,SystemResetWarning,0835.0,4.99,000.00,018.3,017.8,000.0,026.8,020.0,10.8,0000.0,0005.89,0011.83,0005.32
2024-02-17 17:45:00,SystemResetWarning,0834.9,4.99,000.00,018.3,017.8,000.0,026.8,020.0,10.7,0000.0,0005.90,0011.36,0005.34
2024-02-17 17:46:00,SystemResetWarning,0834.9,5.00,000.00,018.3,017.8,000.0,026.8,020.0,11.1,0000.0,0005.94,0011.17,0005.36
2024-02-17 17:47:00,SystemResetWarning,0834.9,5.00,000.00,018.3,017.8,000.0,026.9,020.0,10.8,0000.0,0005.98,0011.16,0005.37
2024-02-17 17:48:00,SystemResetWarning,0835.1,5.00,000.00,018.3,017.8,000.0,026.8,020.0,10.8,0000.3,0006.00,0011.28,0005.40
2024-02-17 17:49:00,SystemResetWarning,0835.0,5.00,000.00,018.3,017.8,000.0,026.8,020.0,10.9,0000.0,0006.04,0011.37,0005.43
2024-02-17 17:50:00,SystemResetWarning,0834.9,5.00,000.00,018.3,017.8,000.0,026.8,020.0,10.9,0000.0,0006.06,0011.33,0005.45
2024-02-17 17:51:00,SystemResetWarning,0835.4,5.00,000.00,018.3,017.8,000.0,026.8,020.0,10.9,0000.0,0006.07,0011.38,0005.46
2024-02-17 17:52:00,SystemResetWarning,0835.3,4.99,000.00,018.3,017.8,000.0,026.8,020.0,11.0,0000.0,0006.08,0011.25,0005.49
2024-02-17 17:53:00,SystemResetWarning,0835.1,5.00,000.00,018.3,017.8,000.0,026.9,020.0,10.9,0000.0,0006.09,0011.25,0005.52
2024-02-17 17:54:00,SystemResetWarning,0835.3,5.00,000.00,018.3,017.8,000.0,026.9,020.0,10.8,0000.0,0006.07,0010.73,0005.53
2024-02-17 17:55:00,SystemResetWarning,0835.3,5.00,000.00,018.3,017.8,000.0,026.8,020.0,11.2,0000.0,0006.09,0010.11,0005.55
2024-02-17 17:56:00,SystemResetWarning,0835.4,5.00,000.00,018.3,017.8,000.0,026.8,020.0,11.2,0000.0,0006.10,0010.31,0005.56
2024-02-17 17:57:00,SystemResetWarning,0835.5,5.00,000.00,018.3,017.8,000.0,026.9,020.0,11.0,0000.0,0006.08,0010.46,0005.57
2024-02-17 17:58:00,SystemResetWarning,0835.3,5.00,000.00,018.3,017.8,000.0,026.9,020.0,10.8,0000.0,0006.08,0009.84,0005.57
2024-02-17 17:59:00,SystemResetWarning,0835.0,5.00,000.00,018.3,017.8,000.0,026.9,020.0,10.8,0000.0,0006.08,0009.66,0005.57
